Theta_e
314 316 317 319 323 326 325 325 323 323 322 314 314 317 320 324 325 325 326 326 329 330 330 332 333 332 334 334 335 333 335 338 336 335 337 340 337 336 336 336 336 335 334 334 334 334 334 335 333 335 338 339 339 338 337 333 330 332 333 331 332 333 333 333 333 332 332 332 332 332 332 333 333 333 333 332 332 332 333 332 333 333 333 333 333 333 331 329 329 329 329 329 329 329 328 326 324
317 318 320 320 323 324 324 324 320 319 317 313 315 318 321 324 325 326 325 327 331 330 331 333 333 334 334 333 332 332 336 336 336 337 338 338 337 336 335 336 336 334 334 334 334 334 336 335 331 334 338 340 338 338 336 333 331 331 330 328 330 332 333 334 333 333 333 333 332 332 332 331 332 333 332 332 332 332 333 334 334 334 333 333 334 332 329 328 328 328 328 328 328 328 326 324 324
318 320 323 323 323 323 322 322 318 314 313 312 314 320 322 323 326 327 328 330 332 330 332 333 333 334 333 332 332 334 337 336 336 337 336 338 336 334 335 336 334 334 334 334 334 334 337 333 330 335 338 339 338 338 336 334 333 333 331 328 330 332 333 334 333 333 333 333 333 333 333 332 330 331 332 333 333 332 333 333 333 333 333 333 333 331 329 329 328 327 327 327 327 327 325 324 322
318 319 322 323 323 322 321 322 320 314 312 311 314 321 323 324 326 329 331 331 331 330 332 333 333 334 333 336 333 333 338 338 338 337 336 338 336 335 336 335 334 334 334 334 333 335 336 332 333 337 339 338 338 338 335 333 333 333 332 330 330 332 332 332 332 332 332 332 333 332 332 332 330 330 332 333 332 332 332 333 333 333 333 333 331 330 330 329 328 327 327 327 326 326 325 323 321
320 321 320 322 324 322 321 321 321 316 314 313 315 321 322 324 327 330 333 330 329 331 332 332 334 335 333 336 334 335 339 337 338 337 337 337 336 335 336 335 333 332 334 334 333 336 336 333 336 338 338 338 338 337 334 331 331 331 332 331 331 332 331 330 331 332 332 331 331 330 330 330 331 331 331 332 332 331 332 333 333 333 333 332 331 330 332 331 327 326 327 326 326 325 323 322 321
321 323 321 322 323 322 320 317 316 316 318 318 317 319 320 323 327 331 332 329 329 330 331 332 335 335 333 336 335 337 338 337 338 337 337 337 336 335 336 334 332 332 334 333 334 337 336 335 338 339 338 338 337 335 330 328 329 329 331 332 331 332 331 330 332 332 331 331 330 330 331 331 331 331 331 332 331 331 331 332 332 332 332 332 332 332 331 329 326 326 326 325 324 324 322 322 322
322 323 323 323 323 321 319 316 316 317 319 320 319 319 320 323 327 330 331 330 329 328 329 332 334 333 335 336 335 337 337 337 337 337 338 337 336 336 335 333 331 332 333 333 336 338 337 337 339 338 338 338 336 331 326 327 329 329 331 331 330 331 330 331 332 332 331 331 331 331 332 331 331 330 331 332 331 332 331 331 332 332 332 332 332 331 329 328 326 326 326 325 324 323 322 322 321
321 322 322 323 324 321 318 317 319 320 320 319 319 319 320 324 327 328 329 329 328 329 329 331 332 332 336 335 336 337 335 337 338 338 338 336 335 335 334 332 331 332 333 335 338 339 337 338 339 338 338 337 335 329 326 327 330 331 331 329 330 330 329 331 332 331 330 330 332 332 331 330 330 330 330 330 331 331 331 331 332 332 332 332 331 329 328 327 326 326 326 325 324 322 322 321 320
321 322 322 323 324 321 316 316 319 320 321 319 319 318 320 324 326 327 327 327 326 327 328 331 331 331 334 333 336 337 335 337 337 338 337 335 335 335 334 331 330 332 333 336 339 339 338 338 339 338 338 336 334 331 329 327 330 333 331 328 330 331 330 331 331 330 329 329 331 331 331 330 330 330 329 329 330 330 331 331 331 331 331 330 329 328 327 327 327 326 326 325 324 322 321 320 320
321 322 322 324 324 319 313 314 318 320 321 320 320 318 319 323 326 327 326 326 324 326 329 330 330 330 332 334 337 337 336 337 337 338 336 335 335 335 334 331 331 333 334 337 338 338 338 338 339 338 337 337 334 333 330 327 329 332 331 329 330 331 330 331 331 330 328 327 329 328 329 329 329 330 329 328 329 330 331 331 330 330 329 329 328 328 328 327 327 326 326 325 323 321 321 320 320
322 322 322 323 321 316 312 313 317 321 321 320 320 319 320 324 326 327 326 325 323 327 331 330 329 329 330 335 338 337 337 337 337 337 335 335 335 334 334 332 333 333 334 337 338 338 338 338 338 338 337 337 334 332 330 327 327 329 331 331 330 330 329 331 331 330 327 327 328 328 328 329 329 330 329 329 330 330 331 331 330 330 329 328 327 327 327 326 326 326 325 324 322 321 321 321 320
322 324 323 322 320 319 316 314 317 321 322 321 321 319 321 324 326 326 324 323 322 326 329 329 330 328 330 335 337 337 337 337 337 336 335 335 335 334 333 332 332 332 334 336 336 337 338 337 337 337 337 336 333 332 329 327 325 325 328 330 329 329 329 331 331 329 328 328 328 329 329 329 329 329 329 328 328 329 330 330 329 329 328 328 327 327 326 326 325 324 324 322 322 321 321 321 320
323 324 324 323 323 323 319 316 317 320 321 322 322 320 322 325 326 324 323 322 322 324 327 328 328 327 331 336 337 336 336 337 336 335 335 335 334 334 331 330 331 332 332 334 334 336 338 338 337 336 337 335 333 332 330 327 325 324 326 330 330 328 329 330 330 329 328 328 328 328 329 329 329 329 328 327 328 329 329 329 329 329 329 329 328 327 326 324 322 322 322 321 321 321 321 320 320
324 324 323 324 324 324 322 318 316 317 319 323 322 321 324 325 324 323 322 322 322 324 327 328 327 328 332 335 337 336 336 336 336 335 335 335 334 333 331 330 331 331 331 332 332 334 337 337 337 336 336 335 334 333 331 328 328 325 324 329 330 328 327 329 330 330 328 327 326 327 328 328 328 328 328 327 327 328 328 328 329 329 328 327 327 326 324 322 321 322 322 321 321 321 320 320 320
324 322 322 324 323 323 322 319 317 317 319 322 321 321 324 323 321 322 322 322 324 326 327 328 330 329 329 332 337 336 336 336 336 335 335 335 335 332 331 331 331 331 330 331 331 332 335 335 336 336 336 336 335 334 333 330 330 327 324 327 328 327 327 328 330 330 329 326 325 327 327 327 327 327 326 326 325 326 327 328 328 327 327 326 326 325 322 321 322 322 322 321 320 320 320 320 320
322 322 324 324 322 322 322 320 318 317 319 320 319 321 324 322 320 321 320 321 324 325 324 328 330 328 327 331 336 337 337 336 336 336 336 335 334 332 330 331 330 330 330 331 331 330 332 332 332 334 335 336 335 333 333 332 330 328 325 325 326 326 326 327 329 330 329 326 325 324 323 326 326 325 325 325 325 326 326 327 326 326 326 326 326 325 321 320 321 321 321 320 319 319 320 320 320
320 322 324 322 322 322 321 321 318 317 318 318 319 320 323 322 320 319 319 320 323 324 324 328 330 328 329 331 334 338 337 336 336 336 336 335 334 331 330 330 330 331 331 331 331 330 330 330 329 331 332 334 335 333 333 333 330 329 327 325 326 327 326 326 326 327 327 327 326 322 322 326 326 325 325 324 324 325 325 325 324 324 324 324 324 323 320 320 320 321 320 319 319 319 320 321 321
321 324 323 321 324 323 321 321 318 318 319 316 318 319 322 323 320 320 320 321 322 324 324 327 329 328 331 330 332 338 337 336 336 335 336 335 334 332 330 330 330 330 331 331 331 331 330 330 330 329 329 331 333 333 333 333 331 330 329 326 327 327 326 326 326 326 327 327 325 323 325 327 327 326 326 325 323 322 323 323 322 322 322 321 321 320 319 318 319 319 319 319 319 320 322 324 324
321 323 323 323 324 322 318 318 317 318 318 316 317 318 321 322 320 320 320 321 322 323 323 325 327 327 331 330 332 338 336 336 336 335 336 334 334 333 331 329 330 330 330 331 331 331 330 330 330 330 329 329 331 332 333 332 331 331 330 328 327 327 326 326 327 327 327 327 325 326 328 327 327 327 326 326 323 319 319 320 320 320 320 319 318 318 318 318 319 318 318 318 319 321 324 325 325
321 321 323 323 321 319 317 317 316 316 316 317 317 315 318 320 320 320 320 321 321 322 321 324 326 327 330 330 333 338 336 336 335 335 335 334 334 333 332 329 329 329 329 330 330 330 330 330 330 330 330 329 330 331 331 331 330 330 329 328 328 328 327 327 328 328 327 327 327 327 328 327 327 327 324 322 322 320 319 317 317 317 317 317 318 317 318 317 317 317 317 317 321 324 325 325 324
323 322 323 321 318 318 316 315 315 314 315 315 316 315 316 317 318 320 320 321 321 322 320 322 323 324 331 331 334 337 336 336 336 335 335 334 334 334 334 331 329 329 329 329 328 329 330 330 330 330 330 329 329 329 329 329 329 329 328 328 328 329 329 328 328 328 328 328 327 327 328 327 327 326 323 322 324 326 324 321 319 321 321 318 316 318 320 319 319 320 320 320 324 325 325 324 323
323 323 321 317 317 318 315 314 313 312 313 315 316 316 316 316 316 318 319 320 320 321 319 320 320 322 332 332 334 338 336 337 336 335 336 335 335 334 334 333 330 329 329 329 328 329 330 330 330 329 329 329 329 328 328 328 328 329 328 328 329 329 329 329 328 328 328 328 328 328 327 326 326 327 325 325 327 327 327 326 325 325 324 320 315 320 323 321 322 325 324 324 325 324 324 324 323
324 325 320 318 317 316 314 313 312 311 313 315 316 315 315 316 316 317 318 319 319 319 318 319 321 325 332 333 335 336 336 337 336 336 336 335 335 334 334 334 332 331 330 328 328 328 328 330 330 329 328 328 328 328 328 328 328 327 328 328 328 329 329 329 328 328 328 327 327 328 327 326 326 327 325 324 325 326 327 327 327 325 324 321 317 322 322 319 321 324 324 323 323 323 324 324 324
325 326 322 319 317 315 314 312 311 311 313 314 314 314 315 315 317 317 317 318 319 318 317 318 323 330 333 333 335 336 337 337 337 337 336 336 336 335 334 334 333 333 331 329 328 328 328 329 329 329 329 328 328 328 328 328 328 327 328 327 327 329 328 329 327 327 328 327 326 326 326 326 326 327 325 324 324 325 325 322 324 323 320 320 316 317 319 319 322 323 323 322 322 324 324 325 325
325 326 322 318 316 316 315 314 313 311 312 313 313 315 316 316 315 315 316 316 317 319 318 318 324 331 331 331 333 335 337 337 337 337 337 336 335 335 334 335 334 334 332 330 329 328 328 328 328 329 329 329 328 328 328 328 328 328 329 327 326 327 326 328 328 327 328 326 324 324 326 327 326 326 326 326 325 326 324 316 317 320 319 318 315 314 318 322 324 323 323 324 324 326 325 326 326
324 326 321 316 317 318 316 318 317 313 312 313 315 319 318 315 314 314 316 316 316 319 320 320 322 327 328 329 331 334 337 338 338 338 337 336 336 335 334 335 335 335 334 332 331 329 329 328 328 328 328 328 329 329 328 329 328 328 329 327 326 326 323 325 326 326 327 326 325 321 321 326 326 325 326 327 327 328 326 318 318 322 323 322 320 322 323 324 325 325 325 326 326 326 326 326 326
322 324 320 318 321 320 317 320 321 316 316 316 318 323 319 313 313 316 317 316 317 318 320 321 321 323 325 327 330 334 336 337 338 337 337 336 336 335 335 334 335 335 335 334 333 331 329 328 328 327 328 328 328 329 329 329 329 328 328 328 326 323 319 321 322 321 321 324 327 321 315 321 326 326 327 328 328 328 328 324 324 325 326 326 325 326 326 325 326 326 326 326 327 327 326 326 326
319 320 321 321 322 322 319 320 322 321 321 319 317 320 320 315 313 316 316 315 317 317 320 322 321 322 323 326 330 333 334 336 337 337 337 337 336 335 335 335 335 335 335 335 334 333 331 329 328 328 328 327 326 328 328 328 329 327 327 328 327 321 315 318 320 318 317 319 323 320 313 315 323 328 329 329 329 329 328 327 327 327 327 327 326 326 326 326 326 326 327 327 327 326 326 325 325
320 320 323 325 322 323 323 320 319 321 322 317 317 321 322 319 314 316 316 316 317 317 320 322 321 321 323 326 329 332 333 334 336 337 336 336 335 335 335 335 335 335 335 335 334 334 333 331 329 328 328 326 323 325 327 328 328 328 325 325 326 322 316 317 318 317 317 316 317 317 316 315 319 326 329 329 329 329 328 328 327 327 327 326 326 326 326 327 326 327 327 326 326 326 325 325 325
323 323 325 326 326 326 324 321 317 319 320 315 320 323 323 321 318 317 317 317 318 318 320 322 321 322 324 326 329 331 333 334 336 337 336 335 335 336 335 335 335 335 336 335 335 334 334 333 331 329 329 326 323 323 327 328 328 328 324 322 324 322 318 317 316 317 319 318 317 315 316 317 318 325 330 329 329 329 328 328 328 327 327 327 327 327 327 327 327 327 326 326 326 325 324 324 324
326 325 326 327 329 326 320 319 318 320 318 313 321 325 324 323 319 317 317 317 317 317 318 320 321 322 324 327 328 329 331 333 335 336 336 335 335 336 335 336 336 335 336 335 335 335 334 333 332 331 330 328 325 323 324 327 329 328 324 322 323 321 319 319 317 318 321 322 323 320 318 317 317 322 328 330 329 329 328 328 328 328 327 327 327 327 327 326 326 326 326 326 325 324 324 324 324
326 328 329 329 329 324 319 318 318 319 316 313 322 326 323 324 320 315 315 317 316 316 317 318 320 322 323 326 327 328 329 332 334 334 335 334 335 335 336 336 336 335 335 335 335 334 334 334 333 333 331 330 328 326 324 325 328 329 327 325 325 323 321 322 320 319 322 325 327 326 323 322 320 320 324 329 329 329 328 328 328 328 328 327 327 327 326 326 325 325 325 325 325 324 324 324 324
326 328 329 329 328 327 324 318 314 316 315 313 321 324 321 320 318 313 311 314 316 316 317 316 319 321 322 325 326 327 328 330 332 332 333 334 335 335 335 335 335 335 334 335 335 334 334 334 334 333 332 332 331 329 328 326 328 329 330 328 327 325 323 324 324 323 324 327 328 329 328 326 326 323 322 325 328 328 329 328 328 328 327 327 326 326 326 325 325 325 324 324 324 324 324 323 323
326 327 328 328 328 327 325 319 313 313 315 314 318 321 320 318 317 314 312 314 316 316 317 316 317 319 321 323 325 326 327 329 331 332 333 334 335 334 334 334 334 335 334 334 335 334 334 333 333 333 333 333 332 332 331 329 329 330 331 330 329 327 326 326 327 327 327 328 329 330 330 329 329 327 324 324 326 328 329 329 328 328 328 327 327 326 326 326 325 324 324 324 324 324 324 323 323
327 328 328 328 326 325 326 322 315 313 315 315 316 317 318 317 317 317 315 314 315 316 316 316 317 317 320 322 323 325 326 327 330 332 332 332 333 334 333 333 334 334 334 334 334 334 334 333 333 333 333 333 333 333 332 331 331 331 332 332 331 330 329 329 329 330 330 330 331 331 331 330 330 329 327 325 326 328 329 329 329 328 328 327 327 326 326 326 325 325 325 325 325 324 324 324 324
329 328 327 328 326 324 326 322 315 313 315 316 318 318 317 317 317 318 318 315 315 315 315 315 316 316 317 319 321 323 324 325 327 330 332 332 333 333 333 333 333 334 334 334 334 334 334 333 332 332 333 332 332 333 332 332 331 331 332 332 332 332 331 330 330 331 332 332 332 332 332 331 331 330 329 327 327 328 329 329 328 328 328 328 327 326 326 325 326 326 326 326 326 325 324 324 324
330 329 327 328 327 325 325 321 314 313 317 318 320 320 319 319 317 318 318 316 315 315 315 315 316 316 316 317 319 321 322 324 326 329 331 332 333 334 333 333 333 333 333 333 333 333 333 333 332 332 332 332 331 332 332 333 332 331 332 332 332 332 332 331 330 330 332 333 333 332 332 332 332 331 330 330 329 329 329 329 329 328 328 328 328 327 326 326 326 326 327 326 326 325 325 325 324
328 328 327 326 327 325 323 319 314 312 317 321 321 320 320 319 318 317 318 317 316 315 316 316 316 316 317 318 318 320 321 323 326 330 331 332 333 334 334 333 333 332 332 332 332 333 333 332 332 332 332 331 331 331 332 333 332 332 332 332 332 332 332 331 331 330 331 332 332 332 333 332 332 332 331 331 330 330 329 330 329 329 329 329 328 328 327 327 327 327 327 327 326 326 326 326 325
327 327 326 327 327 325 320 316 313 311 315 320 320 318 317 317 318 317 318 318 317 317 315 316 316 316 317 317 318 319 320 321 324 327 329 331 332 333 334 333 333 332 332 332 332 332 332 332 332 332 332 332 331 331 331 332 333 333 333 332 332 332 332 332 331 331 330 331 332 332 333 332 332 332 332 332 331 331 330 330 330 330 329 329 329 328 328 328 328 328 327 327 326 326 325 325 325
328 328 327 327 326 325 323 317 314 313 315 317 316 316 316 317 318 317 318 318 318 317 316 316 316 317 317 317 318 318 318 320 320 322 325 327 329 331 332 333 333 332 332 332 332 332 333 333 332 333 332 332 332 331 330 331 332 333 333 333 333 333 333 333 332 331 331 331 332 333 333 333 332 332 332 332 332 332 331 330 330 330 330 329 329 329 328 328 328 328 328 327 327 326 325 324 324
329 329 328 328 325 324 323 317 314 313 314 313 314 317 319 320 321 320 319 318 318 318 317 317 316 317 317 317 319 319 317 318 318 319 320 323 327 329 330 331 332 333 332 332 332 332 332 332 333 333 333 333 332 332 331 331 332 332 333 333 333 333 333 333 333 332 332 332 332 332 333 333 333 332 332 332 332 332 331 331 331 331 330 330 330 329 329 329 328 328 328 327 326 325 325 325 324
329 329 328 328 326 324 322 318 317 319 319 314 314 320 322 321 323 323 322 321 320 319 318 317 316 316 317 317 318 318 318 318 317 317 319 321 323 326 328 330 331 332 331 331 332 331 332 332 333 333 333 333 333 332 332 331 331 332 332 333 333 333 333 333 333 332 332 332 332 332 332 333 332 332 332 331 332 332 331 331 331 331 330 330 330 329 329 329 328 328 328 327 326 325 325 325 325
329 328 326 326 326 324 322 321 323 326 323 315 312 319 322 320 321 322 322 322 322 322 319 317 317 316 317 317 317 317 317 317 318 317 317 319 320 322 325 327 329 330 330 330 332 332 332 332 333 333 333 333 333 333 333 332 332 332 332 332 332 332 332 332 332 332 332 332 332 332 332 332 332 332 331 331 331 332 331 331 331 331 330 330 329 329 329 329 328 328 327 326 326 325 325 326 325
329 326 325 326 326 325 324 323 324 324 322 318 314 316 320 319 319 320 319 319 320 321 319 317 317 316 316 317 317 317 318 318 320 319 318 318 318 319 320 322 325 327 328 330 331 332 332 332 332 333 333 332 333 333 333 333 332 332 332 332 332 332 332 332 332 332 332 331 331 332 332 331 330 330 331 331 331 331 331 331 331 331 330 330 329 329 329 329 328 328 327 326 325 325 325 326 325
326 323 324 325 324 325 324 324 325 322 322 325 320 316 320 322 319 319 319 318 318 319 318 318 317 316 316 316 317 318 318 319 319 319 319 318 318 318 317 318 320 322 324 326 328 330 331 332 332 332 333 332 333 333 333 333 332 331 332 332 332 332 331 331 331 331 331 331 331 331 331 331 330 330 330 330 330 330 331 330 330 331 331 330 329 329 329 328 328 328 328 326 325 325 325 326 325
322 321 323 323 322 323 323 324 326 322 322 327 325 318 322 324 320 319 320 317 318 319 319 320 319 318 317 316 317 317 317 320 320 319 318 318 318 317 316 316 316 316 318 319 322 326 329 331 331 331 332 332 332 332 332 333 332 331 332 332 332 331 331 331 330 330 331 331 330 331 331 330 330 330 330 330 330 330 330 330 330 331 331 330 329 328 328 328 328 327 327 327 325 325 326 326 325
320 322 322 322 322 322 322 323 322 325 327 327 326 320 320 324 322 320 321 318 318 319 320 321 321 320 319 317 318 318 317 318 318 316 316 315 315 314 314 314 313 313 314 314 316 320 324 327 329 330 331 331 331 332 332 332 332 332 331 331 331 331 331 330 330 330 330 331 330 331 331 330 330 330 330 330 330 330 330 330 329 329 330 330 329 328 327 327 327 327 327 327 326 326 325 326 325
322 324 324 325 324 321 323 322 320 328 331 325 323 321 320 323 323 319 320 318 317 319 319 320 321 320 321 319 319 319 316 315 314 314 313 313 313 312 311 311 310 310 310 311 311 312 316 321 325 327 328 329 330 331 331 331 332 332 331 330 330 331 331 331 330 330 330 330 331 330 330 330 330 330 330 329 330 329 329 330 329 329 329 329 329 327 326 326 326 327 327 327 327 326 325 324 323
323 324 325 328 326 325 329 327 323 329 330 318 316 319 319 321 321 318 320 318 317 318 317 319 319 319 320 319 318 317 315 313 313 313 314 314 314 314 314 312 311 310 309 309 309 309 311 317 322 323 325 326 328 330 330 331 330 330 330 330 330 330 330 331 330 330 330 330 331 330 330 330 330 330 329 329 329 329 329 330 330 330 330 329 328 328 326 326 326 327 326 326 326 325 324 323 322
322 324 327 329 327 329 333 330 327 329 324 314 312 317 320 320 318 318 318 318 318 317 316 317 317 317 317 316 315 315 314 313 314 315 316 316 316 317 317 315 314 312 311 309 309 309 311 314 318 320 322 324 326 328 329 329 330 329 329 329 329 329 329 330 330 330 330 330 330 329 329 329 330 330 329 329 329 329 329 329 329 329 329 329 329 328 326 326 327 326 325 325 324 323 322 321 321
321 323 325 327 326 329 332 330 329 327 319 313 314 320 322 319 316 316 315 315 316 315 314 314 314 314 315 315 314 314 314 315 317 317 316 315 314 315 315 316 314 313 312 311 310 310 311 313 316 318 320 322 324 327 328 328 329 328 328 328 328 328 329 329 329 330 330 329 329 328 328 329 329 329 329 328 329 329 329 329 329 329 329 329 328 327 326 326 326 324 323 323 323 322 321 320 319
322 321 324 327 325 325 324 321 321 321 319 316 316 319 320 317 316 315 314 314 314 313 313 313 313 313 314 315 315 315 314 315 318 319 316 313 312 312 313 314 314 313 312 311 310 310 310 312 313 315 318 319 322 325 327 328 327 327 327 327 327 327 327 328 329 329 329 329 328 328 328 328 329 329 328 328 329 329 329 329 329 329 329 328 327 326 326 326 325 322 321 321 321 321 320 319 318
322 322 324 324 321 322 322 319 316 317 324 323 317 317 318 317 318 317 316 316 314 314 314 312 313 313 313 315 316 317 317 317 317 317 314 313 313 313 313 313 313 314 313 312 311 311 310 311 312 313 315 317 320 323 325 326 326 326 326 326 326 326 327 327 328 328 329 329 329 328 328 328 328 328 328 328 329 329 328 329 329 329 329 328 325 325 325 324 323 322 320 320 320 319 319 318 318
321 323 324 319 318 319 320 322 320 320 327 325 318 319 319 318 319 319 317 318 317 317 315 314 314 313 314 316 317 318 318 317 315 313 313 313 313 312 313 313 312 313 312 311 310 310 309 310 312 313 315 316 318 320 322 323 324 324 325 325 325 326 326 327 327 327 328 328 329 329 328 328 328 328 328 328 328 328 328 328 329 329 329 327 325 324 324 323 322 322 321 320 320 319 319 318 318
317 320 320 319 322 322 320 322 323 323 327 326 320 318 318 318 318 317 317 318 318 318 317 316 315 314 314 315 315 317 317 316 314 313 313 313 313 312 312 313 312 310 310 310 309 309 308 308 310 312 315 317 318 319 321 322 323 323 324 324 325 325 325 326 327 327 327 328 328 328 328 328 327 327 327 327 327 327 327 328 329 329 328 327 325 324 323 323 323 322 321 320 319 318 319 318 316
314 315 317 319 321 322 322 323 322 322 326 326 322 319 317 318 319 318 317 316 316 316 316 317 317 316 315 315 315 316 317 316 315 314 313 312 312 313 313 313 312 310 310 310 310 310 309 308 308 309 313 316 317 319 320 319 319 320 322 322 323 323 324 324 325 326 326 326 327 327 327 327 327 327 327 326 327 327 327 328 328 327 327 326 325 324 323 323 323 322 321 320 319 318 317 316 314
315 316 318 319 318 317 319 321 320 321 323 324 324 322 319 317 319 320 318 316 316 317 317 317 318 317 316 315 315 316 315 315 314 313 312 311 311 313 313 313 312 310 310 309 309 309 309 309 309 309 310 312 314 316 318 317 316 317 319 320 320 321 322 322 322 323 324 325 326 326 327 326 326 326 326 326 327 327 327 327 327 326 325 325 324 324 324 323 322 320 319 319 317 316 314 313 312
317 317 318 319 318 317 320 323 321 318 319 320 321 322 319 316 317 319 318 318 317 317 318 318 318 316 315 315 316 315 314 314 313 312 311 310 311 313 314 313 311 310 310 310 310 310 310 310 311 310 310 311 311 312 313 314 314 315 316 317 318 319 320 321 321 322 323 324 325 325 326 326 326 326 326 326 327 327 327 327 326 325 324 324 324 324 324 322 320 319 318 317 315 314 312 311 309
Wind_Speed
5 6 5 5 5 7 7 4 4 3 3 1 3 1 4 4 2 4 6 4 3 5 3 3 5 4 1 4 4 5 9 7 5 1 2 6 11 11 11 13 13 12 12 11 10 11 10 9 10 8 8 10 12 13 14 14 14 14 12 12 13 13 13 14 13 14 14 13 14 14 14 14 15 15 15 15 16 16 16 16 16 15 16 17 17 17 17 17 17 17 17 16 16 16 17 18 18
5 7 5 5 5 6 3 1 4 2 3 1 4 2 6 4 3 4 6 3 4 7 4 4 5 3 3 5 3 2 8 10 9 7 6 10 12 11 13 13 13 12 11 11 10 10 9 8 10 9 9 12 14 14 13 14 13 13 12 13 15 13 13 14 14 14 14 13 14 15 14 14 15 16 15 16 15 15 16 15 15 15 15 16 17 17 16 16 17 16 16 16 16 16 17 18 17
5 6 6 6 6 6 2 3 4 2 2 1 4 4 5 4 3 4 6 6 8 8 5 5 4 2 1 2 1 2 4 7 10 10 8 12 11 12 14 13 13 12 11 11 10 10 10 10 11 10 11 13 14 13 13 13 13 13 13 14 16 13 13 14 13 14 14 14 14 15 15 14 15 16 16 16 15 14 15 15 14 15 15 16 16 16 16 16 16 16 16 16 16 16 17 17 17
4 5 5 6 5 4 4 4 3 4 2 2 3 5 4 3 4 7 9 8 7 6 5 5 4 2 3 1 2 1 5 7 9 9 8 11 11 15 15 13 13 12 11 10 10 11 10 12 12 11 13 14 13 12 12 13 13 13 14 14 15 14 13 13 13 13 13 14 14 14 15 15 15 15 15 15 14 14 15 15 14 14 14 15 15 15 16 16 16 16 16 15 15 15 16 16 16
3 5 5 6 5 1 3 3 3 4 2 3 2 5 3 2 6 8 8 7 6 4 4 5 4 3 2 3 3 1 4 5 7 9 10 10 14 17 14 13 12 11 12 10 12 11 11 13 12 13 15 14 13 13 12 13 12 13 14 13 14 14 14 13 12 13 13 13 13 13 13 14 14 14 14 14 14 14 14 14 15 15 15 16 16 15 15 15 15 15 15 15 15 15 15 16 16
4 5 5 6 3 2 3 3 3 1 5 4 3 5 3 3 6 8 8 7 5 2 1 4 1 2 3 2 3 4 5 3 6 7 10 12 15 16 13 12 11 12 12 11 12 11 12 13 13 15 16 15 13 13 13 13 11 12 14 13 12 13 13 12 12 13 14 13 13 12 12 13 13 13 13 13 14 14 13 12 13 14 15 15 15 15 14 13 13 14 14 14 15 15 15 16 16
5 5 4 4 2 1 5 4 2 2 5 4 4 4 3 5 6 9 8 6 4 2 2 3 0 2 2 4 2 6 6 4 5 7 12 15 16 15 12 11 12 13 12 12 12 11 12 13 14 15 15 15 14 13 13 13 11 12 14 12 12 11 12 12 12 13 14 12 12 12 12 13 12 13 12 13 14 14 13 12 12 13 14 14 14 14 13 12 13 13 14 14 14 15 16 16 16
5 4 2 4 3 2 4 3 1 2 4 3 3 4 3 5 6 7 8 5 4 4 4 3 2 4 2 3 1 6 5 5 6 10 14 16 16 14 11 11 13 13 12 13 11 11 13 14 15 15 15 15 14 13 12 12 12 12 12 12 12 9 10 12 12 14 13 11 12 12 12 12 12 12 12 13 13 13 13 12 11 12 13 13 13 12 12 13 13 13 13 14 14 15 15 16 16
4 3 2 4 4 2 3 2 1 2 4 3 2 3 2 4 6 6 6 4 3 4 5 5 3 3 2 3 3 6 6 5 8 11 13 16 16 13 11 11 12 13 13 13 11 11 13 14 14 15 16 15 13 12 11 11 12 12 11 12 12 9 10 12 13 14 12 11 12 11 12 12 12 12 12 13 12 12 12 11 10 11 12 12 12 11 12 12 13 13 13 13 13 14 15 15 15
4 3 3 3 4 2 4 3 2 3 4 3 3 4 4 5 5 5 6 4 3 4 4 3 3 3 1 2 4 5 6 8 11 12 14 16 15 12 10 10 12 13 13 13 12 11 13 14 14 15 15 14 13 11 11 11 12 12 11 13 12 10 10 12 13 13 12 11 10 10 11 11 11 11 11 12 12 11 11 10 9 9 10 10 11 11 12 12 12 12 12 12 13 14 14 14 14
3 3 2 4 4 3 2 2 3 3 4 3 3 5 4 6 6 5 5 3 3 3 5 4 4 4 2 1 4 6 8 10 12 14 15 15 13 11 9 10 12 13 13 13 12 11 12 14 15 14 14 13 12 11 10 10 11 11 12 12 11 10 9 11 12 11 11 11 11 11 11 10 11 10 11 12 11 11 10 10 9 9 9 9 10 10 10 11 12 12 12 12 12 12 12 12 13
4 2 3 4 5 2 1 0 2 3 3 3 5 5 4 6 6 5 5 3 3 3 5 6 1 1 4 2 4 7 10 11 13 15 15 14 13 10 9 10 11 12 13 13 12 11 12 14 14 14 13 12 11 10 10 10 10 10 11 11 10 9 8 10 11 11 12 12 12 11 11 10 10 10 11 12 12 11 10 10 9 9 9 9 9 9 10 10 11 11 11 11 11 11 11 11 11
4 2 4 4 3 2 2 1 1 1 2 4 5 5 5 7 6 5 5 3 4 4 4 5 1 1 4 3 5 7 10 12 14 15 15 14 12 10 8 10 11 12 13 13 12 12 11 12 12 12 12 11 10 9 9 9 9 9 10 11 10 9 9 10 11 11 12 13 12 11 10 10 10 10 10 12 12 11 10 10 10 9 9 9 9 9 9 9 10 10 10 10 10 10 9 10 10
3 1 4 3 1 2 2 2 1 3 2 6 5 4 5 5 3 2 3 4 4 2 4 4 0 3 2 4 6 6 10 15 15 14 14 12 11 9 8 10 11 12 13 12 12 12 12 11 10 11 11 9 9 8 7 8 7 7 10 12 11 9 9 10 11 12 11 11 11 11 9 9 9 9 8 9 10 10 10 11 10 9 8 8 8 8 8 8 9 9 8 8 8 8 8 9 9
3 1 4 4 2 3 3 1 1 3 3 6 3 3 5 3 1 2 2 2 3 5 4 3 1 1 0 1 3 8 15 18 16 14 13 12 11 9 8 9 10 11 12 12 12 12 12 11 10 9 9 9 9 7 6 7 6 5 8 11 10 9 9 8 10 11 10 10 10 10 8 8 9 8 7 7 8 10 11 11 10 9 7 7 7 7 7 7 7 7 6 6 6 7 8 8 8
3 1 4 4 3 3 3 2 2 3 4 7 3 2 5 3 1 3 3 4 2 5 3 3 3 2 4 4 5 12 20 19 17 15 13 11 10 9 9 9 10 10 11 11 11 12 12 12 11 9 9 9 9 8 6 6 6 6 7 9 9 8 8 8 9 9 9 9 9 8 8 8 8 7 7 7 9 10 10 10 10 8 7 7 7 7 6 6 5 5 5 5 6 6 7 7 7
2 2 4 4 5 3 3 2 2 1 5 7 3 2 6 4 3 2 2 4 2 4 4 2 4 1 4 6 5 14 21 18 18 16 13 11 9 10 9 9 10 10 11 11 11 11 12 12 12 11 10 10 9 9 8 7 7 6 5 7 8 8 7 7 7 7 7 7 7 7 7 8 7 7 7 6 7 9 9 8 8 7 7 8 7 7 6 6 5 4 4 4 5 5 6 7 7
2 3 5 5 5 2 2 3 3 1 5 6 3 2 5 3 4 3 1 6 5 3 6 4 4 3 4 6 4 14 19 17 18 18 15 12 11 11 9 10 10 10 11 11 11 11 11 12 12 11 11 11 10 9 9 7 7 6 5 6 7 8 8 6 6 6 6 6 6 7 7 7 7 7 7 5 5 7 8 6 6 6 7 7 7 6 5 5 4 3 3 4 4 5 7 6 7
1 2 5 4 0 4 5 5 5 3 4 4 4 2 4 2 1 4 4 7 7 6 7 7 6 8 7 6 8 15 17 17 19 19 17 14 12 11 10 10 10 10 11 11 11 11 11 11 12 11 11 12 11 10 9 7 7 8 7 6 7 8 8 7 7 7 7 7 6 7 7 6 7 7 8 8 6 6 7 6 6 6 6 6 5 4 4 4 3 3 2 2 3 5 6 4 4
1 1 5 1 4 6 5 5 5 5 4 3 4 2 3 3 0 3 5 7 7 8 7 8 9 10 10 9 13 17 17 17 18 19 18 16 14 12 11 10 11 10 10 11 11 11 11 11 12 11 11 12 12 11 10 9 9 9 8 7 7 8 8 8 8 8 8 8 8 7 6 7 8 7 9 8 5 4 4 5 5 5 4 5 5 4 3 3 2 1 1 1 3 3 2 2 3
2 3 3 2 3 3 5 4 5 4 4 4 3 0 2 2 3 4 6 7 7 8 7 8 9 9 12 12 15 18 17 18 18 19 19 18 16 14 11 10 10 10 10 10 10 11 11 10 11 11 11 12 12 12 11 10 11 10 9 8 7 8 9 8 9 9 9 10 9 8 7 8 8 6 7 6 4 4 4 4 4 4 3 4 4 3 3 3 2 2 1 1 1 1 1 2 2
3 4 1 3 0 2 5 4 4 3 3 3 2 2 1 1 4 7 8 9 4 1 2 2 4 5 14 14 15 17 17 18 19 19 19 19 18 16 14 11 10 10 10 11 11 12 12 11 11 12 12 12 12 12 11 11 11 11 10 9 8 8 9 9 8 9 9 10 10 8 8 8 7 6 7 7 6 6 5 5 4 5 5 4 4 3 3 4 3 3 3 1 1 2 2 2 2
4 5 3 2 1 2 4 3 2 2 4 3 3 4 4 4 6 6 10 12 3 6 6 5 4 3 14 16 16 16 16 18 20 21 21 19 19 18 16 14 11 10 11 11 11 12 13 13 12 12 13 13 13 12 10 10 11 11 10 10 9 8 9 9 9 8 9 10 10 9 8 7 7 6 7 8 7 6 6 6 5 6 6 5 4 4 4 5 4 3 3 3 3 2 2 2 2
6 5 6 5 2 1 3 3 1 2 4 4 4 4 5 7 5 3 7 12 7 4 6 5 3 6 13 15 15 16 17 19 20 20 19 18 18 17 16 15 12 11 10 12 12 12 14 14 14 14 13 13 13 12 11 10 11 11 10 11 10 9 9 9 9 9 9 10 11 10 9 8 7 7 7 7 7 6 7 8 7 6 6 5 5 5 4 4 3 4 3 3 2 2 2 3 4
7 6 5 5 3 3 2 1 2 2 3 2 3 6 7 6 5 5 9 12 10 5 6 5 4 7 10 12 14 15 16 18 18 18 18 17 17 17 16 15 13 12 11 12 12 12 13 15 15 15 14 13 13 12 11 10 10 11 10 11 11 10 11 9 9 10 9 10 11 12 11 8 8 8 7 7 7 6 6 8 7 6 5 5 5 4 4 3 3 3 2 2 1 2 4 5 5
6 7 3 4 4 4 3 3 4 2 3 2 4 9 7 2 4 8 12 11 9 7 6 6 6 7 8 10 12 13 14 16 18 18 18 16 16 17 18 17 15 15 14 13 12 12 13 15 15 15 14 14 13 13 12 11 11 11 11 11 11 12 13 12 11 12 11 10 11 14 14 11 8 8 8 7 7 6 6 6 6 5 5 4 4 3 3 3 3 3 2 3 3 4 5 6 6
3 5 2 4 5 5 4 5 6 3 4 5 7 11 6 2 1 6 3 2 6 7 7 8 8 8 8 9 10 12 13 15 17 17 16 16 16 17 19 19 17 16 15 14 13 12 13 15 16 16 15 15 14 13 13 12 11 12 12 12 12 14 15 14 14 14 14 13 11 14 16 14 10 8 9 8 7 6 6 5 5 5 5 4 3 3 3 3 3 3 4 5 4 5 5 7 7
3 3 3 6 7 7 7 7 8 6 5 6 6 10 9 3 4 8 2 3 5 8 8 9 9 8 9 9 9 10 12 14 16 15 17 18 18 18 19 20 19 17 16 16 15 13 13 15 16 16 16 17 17 15 14 13 12 12 13 12 12 16 17 15 15 16 16 16 15 15 16 16 12 9 9 9 8 7 7 6 6 6 5 4 3 4 4 4 4 5 5 5 5 6 7 8 9
3 2 3 5 6 9 10 8 6 6 5 5 2 9 12 9 9 12 6 6 5 7 8 8 9 8 8 9 8 9 11 13 15 16 18 19 18 18 19 20 19 18 17 16 16 15 14 15 15 16 17 19 20 17 14 14 13 13 15 15 14 17 18 17 17 16 16 16 16 16 15 16 15 11 10 10 9 8 8 8 7 7 6 5 5 5 6 5 5 5 6 6 6 7 9 9 9
4 4 3 3 5 7 8 7 5 6 4 6 3 6 9 10 13 12 7 7 6 6 7 7 8 8 8 8 8 9 11 13 15 17 18 18 17 17 18 19 20 19 16 16 17 18 16 15 15 16 17 20 22 20 16 14 14 14 17 18 16 18 20 19 19 17 15 15 16 17 15 16 16 13 10 10 10 9 9 9 8 8 7 6 6 6 6 6 6 6 7 8 8 8 8 8 7
5 5 2 3 5 3 5 5 6 7 4 6 6 7 8 7 5 7 6 6 6 6 7 8 8 8 8 8 9 9 10 14 16 17 17 17 17 17 18 18 19 20 17 17 18 18 18 17 15 15 17 20 22 23 20 17 14 15 18 18 18 20 20 19 20 18 16 16 15 16 17 16 16 15 12 11 11 10 9 9 9 8 8 7 7 7 7 7 8 8 8 8 8 8 8 7 7
5 4 4 5 5 2 5 4 5 5 2 8 10 6 7 9 2 8 4 5 6 8 8 8 9 9 9 8 9 8 9 13 15 16 17 18 18 17 17 18 19 21 19 18 17 18 19 19 18 16 16 18 20 23 24 21 17 15 16 17 18 20 20 19 20 19 17 16 14 14 17 17 17 16 15 13 11 10 9 9 9 9 9 9 8 8 8 8 8 7 7 7 7 8 7 7 7
5 5 5 7 6 4 3 3 4 4 3 9 13 7 2 6 4 6 4 5 6 8 8 9 9 9 8 7 8 8 8 11 13 15 17 18 18 17 17 18 19 20 20 19 18 19 19 20 21 19 17 18 18 19 21 22 19 16 15 16 19 21 22 20 19 19 18 15 14 14 15 18 18 17 17 15 13 12 11 10 10 10 9 9 9 8 8 8 7 7 6 6 6 6 6 6 5
6 6 6 6 7 5 3 3 3 5 5 8 13 11 6 5 5 4 6 6 5 7 8 9 8 7 7 6 7 8 8 9 11 15 19 19 18 18 17 17 19 19 20 20 19 19 19 20 21 21 20 18 18 18 18 19 18 17 15 15 17 20 21 21 18 17 17 16 15 14 14 17 18 18 18 17 15 13 12 12 11 11 10 9 9 9 9 8 7 7 6 6 5 4 5 5 4
7 7 6 6 6 8 7 3 5 7 7 8 11 12 11 10 10 9 6 8 6 6 7 7 7 7 7 7 7 8 9 9 11 14 18 18 18 18 18 17 18 19 19 20 20 20 19 20 21 22 23 20 19 19 18 18 16 16 17 16 17 18 17 17 17 15 15 15 14 14 14 15 17 18 18 18 16 15 14 13 12 12 11 11 10 9 9 9 8 8 7 7 5 5 5 4 4
7 7 7 7 6 8 8 4 6 7 6 8 12 12 11 11 12 13 10 9 8 8 8 7 6 6 6 7 7 8 9 9 11 13 15 17 18 19 19 18 18 19 19 20 21 21 21 20 20 22 23 23 22 20 19 20 18 17 17 18 19 20 19 16 15 15 15 16 16 15 15 15 15 17 18 18 18 17 15 14 14 14 13 12 12 10 9 9 9 9 8 8 7 6 6 4 4
8 8 7 8 7 5 5 5 6 5 5 8 12 13 13 12 11 13 12 8 8 9 10 9 8 8 7 8 8 8 9 8 9 12 13 16 18 18 19 19 19 19 20 21 22 23 23 22 21 22 23 24 25 24 22 23 22 20 19 20 20 21 22 19 16 16 16 16 17 17 16 16 16 17 19 20 20 20 18 15 15 15 14 14 13 12 11 10 10 9 8 9 8 8 7 5 5
9 8 6 6 7 4 3 5 6 5 4 7 11 12 13 13 12 12 12 10 10 10 11 11 11 10 8 8 9 8 7 6 7 10 13 15 17 19 19 19 20 21 22 24 24 24 24 24 24 24 24 24 26 26 25 24 24 22 21 20 19 19 21 21 20 19 18 17 18 19 17 16 17 18 20 22 23 22 20 17 16 16 15 15 15 14 13 12 11 10 9 9 9 8 8 7 6
8 6 5 6 6 4 2 5 6 5 4 6 7 9 11 12 13 13 14 13 12 11 11 11 11 11 9 9 9 8 7 7 8 10 13 16 17 19 19 19 21 23 24 24 24 24 24 25 26 25 24 24 25 26 26 24 24 23 20 18 18 18 19 20 20 21 21 21 22 21 19 17 18 18 19 20 23 24 22 19 17 17 16 16 16 16 15 14 13 12 12 11 10 10 9 8 9
9 7 6 6 6 6 4 5 7 6 5 5 6 7 9 11 12 13 14 15 14 12 12 11 10 10 11 9 7 7 9 9 9 10 12 15 17 18 20 20 22 22 22 23 24 25 25 26 27 26 25 24 24 26 27 26 22 21 20 18 18 18 17 18 19 20 20 22 23 22 20 20 19 19 19 18 20 24 26 23 20 18 17 17 18 18 17 16 14 14 14 12 11 11 9 8 10
11 11 10 6 7 7 3 3 5 6 6 5 6 7 8 11 13 14 13 14 15 14 13 12 10 10 10 9 7 7 9 9 9 10 10 13 16 18 21 21 21 21 22 24 26 28 28 29 29 27 26 26 25 26 28 26 23 21 21 20 19 19 18 19 19 19 20 21 22 21 20 20 19 18 18 19 19 20 23 24 22 19 19 19 18 17 17 17 16 16 15 14 13 12 11 9 9
11 13 12 9 6 6 3 3 3 5 4 3 3 6 5 5 10 11 10 12 15 14 14 14 12 11 10 9 9 9 9 9 10 10 9 11 15 17 19 19 20 21 25 27 28 29 28 27 27 27 27 27 26 26 26 26 24 23 23 22 22 22 22 23 22 20 20 21 22 21 20 20 20 18 18 19 20 19 21 21 19 19 20 20 18 16 16 17 18 17 16 16 14 14 13 11 11
10 9 12 12 7 4 4 4 3 4 2 2 2 5 5 3 5 6 6 10 14 13 14 14 12 12 11 10 10 10 10 9 9 10 10 11 14 15 17 19 22 24 26 26 24 26 26 24 25 28 27 26 26 26 26 27 27 25 25 25 23 24 24 24 23 22 22 21 20 21 20 20 22 20 17 18 19 20 21 19 19 21 21 19 18 18 17 17 18 17 16 16 15 16 16 13 12
5 3 9 13 8 5 5 4 5 3 4 2 3 3 6 7 5 6 7 9 12 13 13 13 12 13 13 12 11 11 11 10 9 9 11 12 13 15 16 18 20 22 21 19 20 23 24 24 24 25 27 26 26 27 27 29 29 26 26 25 24 24 23 22 21 21 23 22 21 21 20 21 25 25 22 21 21 22 21 21 22 22 21 19 19 19 18 17 17 17 17 17 16 17 16 13 12
1 4 7 9 7 5 4 4 5 2 4 5 5 3 5 7 4 5 8 10 12 14 15 14 13 14 14 13 13 12 11 11 10 10 10 11 14 15 16 15 16 17 18 19 21 21 21 22 22 23 25 26 26 28 29 30 31 28 25 25 24 23 22 21 19 20 22 22 23 23 21 19 24 27 25 25 25 24 24 25 25 24 22 21 20 18 17 17 18 18 19 20 19 17 16 14 13
2 5 6 5 3 2 2 4 4 2 4 7 5 5 4 7 5 5 7 10 12 12 12 13 14 14 14 13 13 12 11 9 8 9 9 10 11 12 13 13 14 15 17 20 22 20 19 20 22 24 25 25 24 26 28 29 30 29 25 25 24 22 22 21 20 20 22 23 23 24 22 19 21 25 25 25 26 26 26 27 27 26 25 23 20 20 19 19 20 21 21 22 21 19 17 17 15
8 8 7 6 3 2 1 2 2 3 6 6 7 8 4 5 5 5 6 5 7 9 10 11 13 13 14 12 11 11 9 6 5 5 5 6 7 8 9 11 13 13 15 19 21 21 20 19 21 24 24 23 22 22 25 26 27 28 27 26 25 23 23 22 22 22 23 23 23 24 24 20 20 24 25 25 27 27 26 26 26 25 25 24 22 22 23 23 24 23 23 23 22 21 20 18 16
9 7 6 5 3 2 2 2 1 5 6 2 5 9 9 7 4 3 2 1 4 8 9 9 10 10 11 10 8 7 5 4 4 3 4 4 6 7 9 11 12 13 15 18 20 22 22 20 20 22 22 22 21 21 23 25 26 27 27 26 26 25 24 23 24 23 23 23 22 23 24 22 22 23 25 26 27 28 28 28 26 24 25 26 25 24 24 26 26 25 24 24 23 22 21 18 17
6 7 7 6 3 2 5 4 3 7 5 2 3 4 8 10 7 8 9 7 8 9 8 8 9 10 8 4 2 3 3 3 3 4 4 5 5 7 9 10 11 13 15 17 18 20 21 19 18 20 21 21 21 21 22 24 25 27 27 26 25 25 24 24 24 22 22 22 21 23 25 24 23 24 26 28 27 27 28 29 28 28 28 29 29 27 26 27 27 25 23 23 22 21 21 20 20
6 7 7 6 5 4 7 7 5 5 2 4 4 2 6 8 5 11 15 12 11 9 9 9 8 8 6 2 1 1 2 4 4 5 5 5 6 7 8 9 9 11 12 14 15 16 18 18 17 18 19 18 19 21 21 22 24 25 25 24 23 23 23 24 25 23 22 21 21 24 26 25 25 24 27 29 27 26 27 27 27 29 30 30 30 29 27 27 27 24 22 23 22 22 21 20 21
7 6 6 6 6 5 5 5 5 3 3 4 4 3 5 3 1 4 8 7 7 7 7 6 4 5 4 3 3 4 4 5 5 5 6 6 7 8 9 9 10 11 10 12 13 14 15 15 16 17 17 17 18 19 20 21 22 22 22 22 21 21 21 23 25 24 23 22 21 23 25 25 25 24 26 29 27 26 27 28 28 30 30 30 30 29 27 27 26 23 21 21 22 22 21 19 20
7 7 8 8 7 6 2 1 1 0 1 4 6 4 5 2 4 6 6 5 7 7 6 6 5 5 5 5 5 4 5 6 4 4 5 6 7 8 8 7 9 10 10 12 13 13 14 14 15 16 16 17 17 19 19 19 20 19 19 20 19 19 20 22 24 23 23 22 22 24 24 24 24 23 24 25 26 26 27 29 30 30 30 30 28 27 26 26 26 22 19 20 21 22 22 21 21
6 9 9 4 1 4 4 2 2 1 6 5 6 4 5 3 8 9 9 8 9 8 7 7 7 6 6 5 5 5 5 4 3 2 3 4 5 6 6 6 6 6 8 10 11 12 13 13 13 14 15 16 16 17 18 18 18 18 18 18 18 19 21 22 23 22 22 22 23 24 24 22 23 24 23 23 25 27 28 30 30 30 30 29 26 26 27 26 25 23 20 21 23 23 23 22 23
6 9 8 5 4 3 4 3 2 3 7 4 5 7 5 3 4 6 12 13 11 10 9 8 7 6 6 6 5 4 4 2 2 3 3 3 4 5 5 5 5 5 6 7 9 11 12 12 12 12 13 15 15 15 16 16 16 16 17 17 18 20 21 22 23 22 21 22 23 24 23 22 23 24 23 23 25 27 28 30 31 31 31 29 28 29 29 27 26 25 25 25 25 25 24 23 24
2 4 6 5 2 4 5 4 3 5 7 5 5 7 7 7 5 4 9 13 13 11 11 10 9 8 6 5 5 4 2 2 2 3 2 2 2 4 4 5 5 7 7 7 8 9 11 12 13 12 11 11 12 13 13 14 14 14 15 16 18 20 20 21 22 22 22 22 23 24 25 24 24 24 24 25 26 27 28 29 31 31 31 31 30 31 31 30 28 28 28 28 25 25 24 24 25
0 1 5 6 4 3 5 6 3 3 6 5 3 4 5 8 8 7 8 10 9 9 8 10 11 9 7 4 4 3 1 2 2 2 2 2 1 2 3 4 5 7 8 7 7 7 8 9 11 12 11 10 11 12 12 15 16 15 17 19 20 21 22 23 24 24 24 25 25 25 27 27 26 26 26 26 26 27 28 30 31 32 33 33 32 32 32 31 29 29 30 29 27 26 25 25 25
6 5 9 8 3 1 2 5 4 3 5 5 5 5 3 3 7 11 11 9 8 7 4 6 7 6 5 4 2 2 1 2 2 2 2 2 1 2 3 4 4 6 7 6 6 5 5 6 7 9 10 10 12 13 14 16 16 14 17 21 22 23 23 25 26 26 27 27 27 27 27 28 28 28 28 28 28 28 29 30 31 32 34 34 33 33 32 30 30 31 31 29 28 27 26 25 25
10 8 9 9 7 4 3 6 6 5 4 3 4 6 3 3 4 8 10 9 7 4 4 5 4 5 4 4 3 2 2 3 2 2 2 1 1 2 3 3 3 5 5 5 5 4 4 5 5 7 9 10 11 13 15 16 14 13 14 16 18 21 22 23 24 26 27 28 28 28 28 29 29 30 30 29 29 29 29 30 31 33 35 35 34 34 34 32 32 32 29 27 26 26 26 26 26
Wind_Direction
317 315 323 320 298 279 266 260 263 213 250 257 94 132 104 74 81 140 135 137 145 108 64 104 106 87 30 0 24 27 36 39 25 36 111 111 140 138 133 131 128 128 127 128 131 142 146 152 156 150 129 126 123 117 113 102 99 105 105 97 92 93 94 94 92 91 90 88 87 83 81 80 82 85 85 82 81 80 79 82 85 88 90 86 83 80 76 73 75 75 75 75 75 73 70 69 67
318 317 303 299 274 267 289 253 273 224 229 165 102 60 96 117 186 160 136 126 90 102 122 130 121 91 3 348 335 353 57 47 49 74 90 125 140 135 139 137 130 129 126 129 131 136 144 155 161 153 135 132 125 120 114 102 102 104 100 99 96 93 92 93 91 90 88 86 87 86 85 84 84 86 89 88 84 82 82 82 83 87 87 83 80 77 75 75 76 76 76 76 74 73 71 70 68
320 318 281 278 259 248 281 241 267 284 261 99 97 89 115 158 171 119 94 82 83 109 130 121 135 122 301 217 221 327 77 64 80 88 105 143 146 142 146 137 131 131 126 130 133 137 143 157 162 152 141 135 126 121 113 105 105 101 97 99 103 99 93 92 90 90 87 86 87 87 88 87 88 88 91 92 88 86 84 83 86 88 86 84 81 77 77 78 76 74 75 75 74 72 71 70 67
336 327 285 278 262 231 256 245 272 297 303 40 85 109 140 170 126 95 83 84 95 131 138 148 160 108 293 279 52 8 100 83 92 100 137 159 144 143 146 136 133 128 128 131 133 136 144 157 156 149 141 135 128 124 116 110 110 107 103 102 109 107 98 93 92 92 90 91 88 86 86 86 91 94 93 93 91 89 85 82 87 91 92 90 84 82 82 80 76 75 76 75 76 74 72 69 65
337 322 301 279 279 268 277 276 271 283 16 15 45 106 147 140 116 104 98 97 103 143 148 187 170 102 263 359 2 321 98 98 104 117 140 131 124 141 143 135 134 129 131 131 134 135 145 155 150 146 141 136 133 130 124 118 116 111 107 106 109 108 103 99 98 98 94 93 92 90 91 91 94 97 96 96 93 90 89 84 86 88 87 86 83 84 83 80 76 76 78 77 78 76 73 70 66
301 284 272 263 286 349 258 254 237 223 45 357 19 85 136 125 119 120 115 107 105 109 149 212 180 118 186 89 30 30 55 111 120 131 136 124 129 142 139 136 134 130 132 131 134 136 147 153 146 146 142 138 135 132 127 123 121 113 111 109 103 104 105 104 105 105 100 95 96 98 98 100 99 101 101 101 97 94 95 93 96 98 96 93 89 88 84 81 80 79 81 80 79 76 73 70 68
298 281 253 251 231 230 251 254 262 87 62 4 22 66 124 128 125 135 138 134 139 140 190 212 231 236 156 117 115 70 62 74 106 126 125 131 140 140 138 138 132 130 133 132 133 138 150 149 146 147 142 139 133 131 129 127 124 116 117 115 107 107 107 108 109 106 103 100 102 102 98 98 98 100 102 102 101 99 99 98 99 100 99 96 90 88 85 83 84 84 82 81 79 76 73 71 69
285 293 282 285 244 206 261 268 306 42 68 42 42 51 71 130 140 153 158 157 160 158 178 179 227 252 123 120 143 95 96 68 91 114 119 135 142 141 141 135 132 134 134 134 135 141 151 147 145 144 142 141 136 133 130 130 127 121 123 120 120 120 118 118 112 105 104 103 101 101 99 100 100 97 101 104 105 101 96 96 96 95 97 96 94 92 88 88 87 87 84 82 79 76 74 71 71
249 265 247 273 264 213 242 252 120 65 85 81 92 87 69 149 159 165 165 152 147 162 172 168 211 260 104 139 106 108 125 106 117 123 131 143 144 144 139 136 137 138 138 137 136 142 150 146 144 142 142 144 140 137 133 136 132 130 128 120 126 127 123 123 118 114 113 107 103 104 101 99 101 97 102 109 109 107 103 106 106 100 102 100 98 93 89 90 87 87 87 84 80 77 75 73 72
222 237 268 270 266 240 216 214 142 105 95 86 88 117 148 169 174 178 175 153 146 169 141 132 213 251 335 130 109 111 123 131 140 136 142 144 144 145 135 136 138 140 142 138 136 143 150 147 146 146 146 148 146 142 139 141 139 138 130 124 136 138 128 127 126 126 123 118 117 117 107 102 104 103 110 118 118 114 112 111 108 102 104 103 101 98 94 94 90 88 86 84 82 79 77 75 73
229 200 264 275 245 240 218 182 154 120 98 117 113 118 156 170 181 186 178 150 156 169 130 155 211 216 240 107 97 106 121 145 149 142 147 146 144 146 134 134 138 143 144 139 139 141 149 151 152 153 151 152 149 144 140 144 145 142 136 136 148 150 137 130 130 126 121 119 119 119 116 114 112 111 113 118 119 116 114 106 101 99 98 101 104 101 99 98 94 90 86 85 83 80 78 76 74
246 209 207 254 249 255 342 2 141 121 122 135 121 127 159 171 179 183 186 165 171 186 161 185 191 166 214 154 103 118 134 155 152 146 149 148 147 146 137 138 141 146 147 143 139 140 148 153 156 158 159 157 150 143 141 143 145 145 145 145 150 153 143 134 134 126 118 118 121 122 123 123 121 121 120 119 121 120 119 113 106 100 94 98 102 98 95 94 92 88 85 83 82 80 76 75 73
257 260 226 245 276 313 349 311 121 146 158 99 88 120 160 175 186 186 188 177 182 197 155 158 57 274 222 109 111 127 143 154 147 145 149 151 150 146 141 143 145 147 150 148 145 145 148 151 157 163 164 162 157 148 142 143 143 147 153 151 151 154 150 141 136 130 127 131 135 135 132 133 130 128 126 128 132 130 126 122 114 104 103 106 105 104 100 95 92 86 80 78 77 77 73 72 69
285 283 263 260 298 281 280 273 196 199 122 74 74 125 168 175 193 207 198 199 175 134 98 102 15 240 212 134 147 149 152 152 146 146 150 153 149 149 145 144 146 149 155 154 153 152 151 151 157 165 165 165 165 160 150 150 144 144 158 160 156 156 154 145 140 139 138 141 146 146 143 140 135 133 132 134 141 139 130 127 121 116 121 124 115 109 104 98 92 85 78 75 73 71 69 67 65
310 293 264 264 241 231 213 280 254 222 71 64 63 131 176 147 29 251 244 242 97 86 101 111 234 266 237 175 146 146 154 152 149 149 150 150 149 154 148 148 149 153 161 160 159 160 157 155 157 164 168 168 163 165 167 163 154 141 159 168 167 161 158 150 145 147 141 140 146 150 149 145 144 146 145 141 146 145 138 137 136 134 135 132 116 108 110 105 94 88 79 71 69 68 66 62 60
320 294 244 249 240 215 178 195 216 232 61 66 66 131 192 151 128 248 359 342 61 117 169 152 169 311 17 37 56 129 148 150 149 149 148 147 152 158 155 158 157 159 167 166 165 166 167 165 166 170 175 175 164 165 173 172 169 152 162 176 178 171 164 157 149 148 144 141 147 154 155 152 152 147 142 144 146 147 147 151 155 145 134 129 116 114 119 116 107 96 82 71 69 65 62 56 49
300 254 231 233 228 202 167 180 168 200 65 68 106 174 212 164 162 236 12 290 255 150 191 147 139 193 46 64 68 128 143 149 150 152 151 151 159 165 166 170 165 165 172 174 172 170 173 174 175 178 182 183 174 171 174 183 183 167 171 182 184 180 175 170 159 157 156 155 155 147 145 147 144 138 134 140 150 157 161 164 168 153 139 135 127 128 126 121 120 105 91 81 73 63 58 44 25
262 235 227 230 226 183 86 72 66 55 63 56 83 180 230 184 160 171 195 239 230 186 193 172 148 177 107 90 127 139 144 154 156 160 160 162 172 174 173 175 172 170 174 178 178 175 176 178 179 180 184 187 185 179 177 188 188 173 174 181 187 190 190 185 172 168 165 174 165 136 138 149 145 145 141 137 154 167 172 173 169 157 148 146 138 134 130 124 125 116 102 87 81 63 53 38 3
249 250 242 238 101 71 56 56 59 45 52 51 69 133 230 242 125 155 218 230 208 220 209 190 196 191 156 133 157 148 151 165 166 169 171 173 184 187 180 175 178 174 175 179 178 179 179 181 184 182 183 185 185 183 181 184 182 178 176 176 184 190 194 186 173 173 170 177 168 147 157 161 153 168 172 166 169 159 161 169 163 158 158 158 154 146 144 143 141 131 120 97 84 60 47 29 352
160 222 249 234 71 80 69 52 52 38 19 20 64 75 229 237 199 156 231 249 221 232 226 200 207 196 173 156 161 159 163 174 176 179 181 183 189 196 191 179 181 179 177 178 176 180 182 182 185 184 181 180 182 184 187 186 184 184 182 183 184 185 188 184 181 182 179 181 174 166 176 168 161 190 195 176 163 144 153 165 158 160 165 168 171 172 176 181 182 175 159 84 65 50 30 349 349
162 200 240 79 87 107 85 59 44 29 356 355 32 40 234 207 222 219 235 251 236 235 234 217 222 195 169 159 164 167 171 178 183 186 186 187 190 197 204 192 182 180 176 175 177 180 182 182 181 181 178 177 179 182 187 188 188 189 190 191 186 185 188 186 187 187 185 186 180 178 183 176 167 187 194 169 154 169 174 170 159 163 179 188 186 181 195 210 212 226 271 31 44 307 311 334 343
192 201 198 69 113 123 91 72 39 5 330 322 313 308 345 36 233 233 234 244 243 313 316 269 262 192 160 160 164 168 176 183 187 190 191 192 191 194 204 201 186 180 175 175 179 180 181 180 178 178 177 177 179 182 186 188 189 193 195 195 190 190 190 187 188 187 189 188 184 185 187 186 177 179 188 179 180 185 183 184 183 185 191 203 195 180 209 222 218 227 249 257 239 257 289 310 327
217 205 196 168 226 98 97 92 63 328 303 308 328 348 331 286 255 235 227 243 256 54 31 28 2 131 150 156 162 169 181 187 191 195 195 194 194 194 199 201 193 185 181 182 181 179 181 180 179 178 178 179 181 184 186 188 191 194 196 197 193 193 191 190 191 187 190 191 189 190 190 190 187 191 197 192 190 188 189 191 190 194 194 205 201 191 220 231 225 224 234 241 246 263 286 297 316
231 211 199 193 176 146 101 96 119 279 294 327 332 320 293 271 281 268 228 246 248 105 76 63 57 124 145 156 166 176 183 188 194 196 197 198 199 198 200 202 199 193 190 188 182 181 183 182 181 179 181 183 184 187 189 191 194 195 198 199 197 196 193 191 193 190 191 195 195 193 192 196 195 195 200 199 194 191 202 201 197 205 206 214 218 213 223 229 226 227 235 246 255 278 292 307 315
227 218 191 181 177 204 149 144 210 236 266 299 287 283 283 274 310 293 248 251 243 187 124 111 123 144 161 172 175 181 184 189 193 193 197 200 202 203 205 207 205 201 198 194 187 185 185 184 185 183 184 186 186 190 194 195 196 196 199 202 200 200 196 190 192 192 191 197 201 199 194 196 198 197 196 196 194 192 209 210 203 207 209 219 225 222 217 207 215 221 225 243 254 287 298 306 311
220 221 186 180 200 209 197 249 232 185 231 249 273 282 283 277 329 279 248 247 230 191 164 157 156 168 184 187 183 186 187 190 191 192 196 197 200 205 207 210 210 207 201 195 191 189 187 185 187 187 186 187 188 193 196 199 200 197 199 204 205 204 199 194 196 196 195 196 202 207 199 193 196 198 194 192 194 192 205 210 201 200 200 208 203 195 202 195 209 221 235 262 273 286 296 303 309
191 213 199 219 240 231 215 246 240 223 244 235 261 284 286 139 253 258 235 213 203 185 185 182 179 187 192 192 190 192 193 193 193 192 192 195 200 205 208 210 212 211 204 198 195 191 189 188 189 191 190 189 190 193 198 200 202 201 200 203 208 212 208 200 203 205 203 197 200 212 205 195 193 197 196 193 196 193 198 204 199 200 196 195 191 192 221 220 226 250 265 274 279 285 291 299 305
131 172 215 233 244 242 229 237 241 245 245 217 246 286 278 206 207 248 237 107 180 194 196 187 190 198 192 192 190 194 200 197 194 193 194 196 200 203 206 208 210 211 209 204 199 194 193 192 194 193 193 199 200 197 201 203 204 206 205 204 209 219 217 209 211 214 212 206 205 213 210 201 194 196 200 196 198 199 202 209 208 209 201 203 219 227 237 244 251 260 266 267 276 285 289 294 298
145 175 227 216 225 241 227 219 220 226 220 176 223 287 264 227 220 239 214 142 170 197 198 191 197 202 191 192 188 192 201 196 194 198 201 202 202 202 205 206 206 207 209 207 203 200 199 197 198 197 195 208 213 204 203 208 207 209 212 210 210 221 222 216 218 220 220 219 218 219 216 210 203 199 206 203 203 207 209 215 217 217 214 220 234 239 243 247 252 262 266 270 280 286 289 292 293
165 186 241 212 226 240 207 193 183 203 204 148 178 269 256 235 226 220 167 144 176 195 200 198 198 201 194 191 190 193 196 196 197 201 204 205 204 204 205 205 203 205 206 205 204 203 203 200 200 202 200 210 219 211 205 210 209 214 222 220 216 223 225 222 223 222 221 224 228 229 223 220 216 208 209 210 209 210 212 217 220 223 226 228 230 236 245 249 255 265 270 275 282 284 288 292 292
172 161 215 231 237 201 144 172 187 199 199 156 189 247 255 252 204 154 131 155 189 211 211 201 197 198 197 193 196 198 195 198 201 202 204 205 205 204 206 204 201 204 205 204 204 203 204 204 202 205 204 208 218 218 213 212 210 216 227 227 224 229 230 228 229 225 221 222 225 232 231 227 225 218 211 211 213 212 212 217 222 228 232 230 232 238 245 256 263 265 268 276 282 282 284 286 286
179 173 198 210 230 174 133 163 195 212 219 180 200 236 247 250 200 103 121 189 200 230 229 211 205 199 198 196 199 204 199 202 204 205 205 204 204 205 205 205 202 203 205 205 204 204 205 208 207 209 207 206 214 220 220 218 214 216 225 227 227 232 232 230 233 231 225 220 215 223 233 234 231 227 219 213 214 215 216 222 228 230 234 236 240 245 247 255 261 261 267 272 277 281 281 284 285
183 210 213 197 208 211 161 162 205 233 218 194 212 235 218 228 213 115 146 208 213 234 241 227 215 204 202 199 200 206 204 202 203 207 206 203 203 203 203 203 203 204 206 207 204 204 206 208 211 212 211 209 210 217 222 222 219 217 220 224 230 235 235 232 233 233 228 222 217 216 227 235 235 231 226 219 215 217 218 223 229 232 234 236 241 245 245 247 249 254 263 259 263 273 276 284 286
184 204 224 207 205 226 204 159 189 209 218 216 221 237 246 234 229 172 159 181 206 232 244 238 224 212 207 201 204 207 208 206 204 207 206 202 201 201 202 201 203 204 205 208 207 206 207 208 211 215 215 214 213 214 219 224 222 221 221 223 232 238 238 235 230 230 227 222 220 217 219 232 236 233 229 223 217 216 219 222 228 232 231 230 237 242 241 243 244 247 253 250 249 258 271 284 290
195 188 210 211 206 234 236 178 159 183 212 234 227 233 244 249 253 252 203 172 201 235 241 245 238 224 214 208 213 211 214 215 211 211 206 201 199 199 201 200 201 203 204 207 209 209 210 210 212 215 217 216 216 216 217 221 221 223 225 224 230 235 234 232 227 223 223 220 220 219 218 225 233 234 231 225 218 214 217 225 229 229 228 228 233 238 239 241 239 238 241 245 241 238 255 276 289
219 194 204 216 212 234 236 167 145 181 207 229 234 238 243 242 244 254 239 190 208 238 239 246 241 233 226 217 219 216 219 222 217 214 205 198 198 198 199 199 199 201 203 204 206 209 210 211 211 214 217 216 215 216 217 219 220 221 224 224 226 229 229 228 226 223 223 224 224 224 222 223 228 231 231 228 223 216 215 224 230 229 229 227 228 230 233 235 232 231 233 237 236 237 245 251 262
238 217 210 224 230 235 216 159 136 173 220 230 235 242 247 247 240 248 247 209 204 229 236 241 240 238 233 224 224 219 219 224 216 207 199 196 198 197 196 198 198 200 203 204 205 208 209 209 210 212 214 215 214 214 214 216 218 217 217 220 221 224 227 228 227 224 222 224 225 223 223 224 224 225 229 230 227 223 218 221 228 229 228 228 227 226 228 233 234 234 232 233 235 239 243 235 235
235 224 210 222 232 240 189 157 150 166 228 243 237 242 250 251 247 248 248 231 221 229 234 237 240 241 236 230 227 221 218 215 202 194 192 194 196 196 196 196 198 200 203 205 206 207 207 208 210 211 211 211 212 212 213 214 215 215 215 218 219 221 224 226 227 227 225 225 225 224 223 225 225 224 228 231 231 227 220 220 226 227 226 228 230 230 232 234 235 234 232 235 235 234 239 231 221
228 221 215 229 220 218 186 165 173 182 223 249 244 251 259 257 253 249 245 244 242 237 235 235 238 239 235 233 229 222 218 211 206 198 194 196 196 195 197 199 202 204 205 205 206 207 207 209 210 211 209 209 210 210 212 213 213 214 216 217 218 219 222 226 230 232 231 231 229 228 227 227 227 226 227 230 233 231 226 222 224 226 226 228 230 231 233 234 233 233 233 237 235 233 240 234 222
227 221 217 232 204 208 227 185 182 198 228 274 289 276 271 264 256 250 241 243 247 241 236 235 234 236 237 237 233 224 221 219 219 214 201 197 196 195 199 203 205 206 207 206 206 206 207 209 209 209 209 208 209 211 214 214 212 215 218 221 222 222 224 227 233 234 232 233 232 230 231 230 229 229 229 227 231 234 233 229 227 228 229 230 231 231 233 233 232 235 235 233 229 230 232 228 228
224 224 223 229 204 213 244 153 176 216 226 255 286 278 268 252 241 241 235 230 238 240 235 231 224 226 236 239 233 223 225 229 228 227 212 195 194 198 202 204 204 205 207 207 206 206 208 209 208 207 207 209 209 212 215 213 211 214 218 222 224 226 227 226 227 229 229 232 232 230 230 230 229 228 228 227 230 232 234 233 231 230 231 232 230 229 234 235 235 236 234 227 220 223 222 217 228
222 221 225 236 224 217 208 150 192 249 232 197 260 273 269 240 231 235 231 224 229 230 225 222 217 216 221 226 226 222 224 228 231 235 224 200 197 199 201 203 203 206 211 212 209 209 210 209 207 205 206 209 209 209 210 210 209 210 212 214 216 220 224 224 222 223 226 229 230 228 226 225 223 223 223 226 228 227 228 230 229 229 230 230 227 227 234 235 237 235 229 224 217 220 223 218 224
228 211 213 228 242 227 206 206 230 266 282 144 222 270 277 295 268 246 232 229 232 228 219 216 214 217 213 213 215 214 215 216 221 229 225 213 204 199 201 203 205 211 216 214 211 211 212 209 207 206 206 208 209 206 204 206 207 206 208 211 213 216 221 225 224 223 226 228 228 227 223 220 219 218 220 223 224 224 227 226 224 226 227 227 230 233 233 232 236 233 224 219 216 219 223 220 219
230 152 186 211 224 220 212 228 241 282 336 263 201 245 278 284 273 243 227 229 234 232 227 221 215 216 212 210 209 205 208 206 205 215 217 217 212 205 206 207 209 216 218 211 210 212 213 212 209 207 209 210 209 206 203 204 207 205 206 210 214 217 221 225 224 223 226 227 227 225 222 223 223 222 222 223 223 223 224 222 221 224 225 226 230 231 231 229 230 228 220 215 216 219 220 215 208
237 98 160 192 210 211 208 235 246 298 337 262 202 155 259 271 256 229 223 224 231 232 233 231 224 218 214 214 211 206 206 205 203 207 209 210 211 212 214 213 213 217 218 216 217 217 213 214 213 210 211 211 209 209 206 207 210 208 206 208 214 218 221 224 224 223 225 225 226 225 222 224 225 224 223 223 223 221 222 223 222 222 222 221 221 223 225 224 222 223 222 221 220 217 217 216 206
136 125 131 134 166 171 184 249 262 272 268 255 220 172 241 276 264 234 224 224 231 236 237 234 229 223 218 214 213 212 210 207 205 208 211 207 206 210 212 212 213 215 220 224 224 221 215 213 214 214 214 213 211 211 209 208 211 212 210 211 213 215 216 218 221 223 223 222 223 223 221 221 221 221 222 221 220 219 221 224 225 225 223 218 216 220 222 222 220 220 224 226 221 215 220 222 212
130 137 125 117 135 122 155 252 287 260 256 248 214 198 221 279 264 225 222 220 221 232 240 239 235 231 225 214 207 209 204 188 185 204 222 220 215 214 209 211 214 214 220 226 226 224 221 216 215 218 219 219 217 214 211 210 210 212 213 214 215 215 214 213 215 220 221 220 220 219 218 217 218 218 219 218 217 217 219 223 227 228 226 222 220 223 224 223 223 222 224 227 225 225 228 222 210
145 153 145 138 135 119 196 201 170 244 255 238 198 200 209 235 240 200 204 175 202 231 242 240 239 240 236 223 203 193 174 148 157 193 217 222 225 223 219 221 218 214 220 225 227 228 227 221 218 221 222 221 219 215 214 213 212 213 215 216 216 216 216 213 214 217 217 218 218 218 217 216 218 218 218 218 217 218 218 220 224 224 223 222 223 227 226 222 225 229 227 225 226 226 223 212 200
177 171 167 173 158 154 223 218 212 241 238 137 146 182 220 242 249 241 246 242 227 231 240 242 247 252 250 236 155 120 124 141 174 196 202 206 215 213 214 218 211 209 218 224 227 229 229 224 218 222 223 220 217 216 215 214 214 215 216 216 216 218 219 219 218 217 216 217 217 219 220 218 218 217 218 219 217 216 217 218 221 223 224 224 227 233 231 227 231 232 223 217 217 214 211 207 203
182 177 177 186 170 176 226 223 225 245 203 135 121 121 258 266 254 240 248 251 241 235 241 250 258 266 278 318 34 98 182 202 207 210 213 210 212 210 207 207 203 205 213 220 224 225 225 224 219 221 224 220 217 216 216 216 216 217 216 216 217 219 222 224 224 223 219 217 217 220 223 221 220 219 220 221 219 218 220 221 222 224 224 223 228 235 235 234 233 223 212 210 210 206 206 205 205
182 188 192 197 193 203 229 222 223 222 110 133 147 166 246 259 48 248 254 260 252 249 254 264 278 273 283 293 265 256 248 233 211 204 214 216 215 214 209 205 204 206 207 212 219 217 216 217 216 219 221 218 216 216 216 216 217 217 217 217 218 220 223 227 228 228 224 221 219 221 224 224 222 224 225 225 224 223 224 224 223 223 225 229 235 238 235 231 223 209 206 207 206 205 205 202 203
187 187 204 215 221 233 259 285 235 23 75 185 184 225 254 276 323 290 263 250 242 245 244 236 245 243 244 262 254 244 247 239 212 198 215 223 221 219 218 214 212 210 209 211 213 212 212 212 213 215 217 216 216 215 215 216 217 218 218 218 220 223 226 230 230 230 227 224 223 222 224 225 225 226 228 227 226 225 223 223 224 226 230 236 237 231 224 220 210 201 202 203 204 206 204 205 208
177 188 206 203 276 255 238 209 97 350 274 223 173 234 260 265 279 254 228 237 235 228 225 217 228 230 225 241 240 229 234 234 220 221 237 235 226 226 225 225 221 209 205 208 205 205 208 208 211 214 214 215 215 215 217 218 218 219 219 219 221 224 228 231 232 231 229 227 227 225 225 228 227 227 228 227 227 227 225 226 229 230 231 232 227 218 214 209 202 200 202 206 211 209 208 214 218
160 192 189 118 37 312 252 239 174 206 254 241 178 225 240 227 251 212 205 226 231 221 220 216 217 214 218 234 233 228 219 205 228 236 242 236 225 232 228 217 214 206 204 211 212 211 209 206 206 207 211 214 215 217 218 219 221 222 221 220 221 224 228 231 232 233 232 231 229 226 226 228 229 229 229 228 227 228 230 230 231 231 229 225 219 214 214 213 211 212 214 218 220 215 214 220 221
164 202 166 148 223 222 200 228 235 211 237 261 216 219 234 226 221 171 193 218 231 230 229 227 219 205 211 232 233 226 189 183 237 238 234 233 219 232 224 198 201 213 215 215 216 218 214 212 210 205 204 208 209 211 212 214 218 221 225 225 223 225 227 230 233 233 233 232 230 229 230 232 232 231 229 228 228 232 233 232 230 229 226 221 217 214 215 217 220 221 220 219 218 215 217 219 217
309 254 184 198 246 223 201 215 241 231 234 262 242 209 230 223 209 199 193 194 205 211 214 226 227 214 207 218 225 223 205 230 255 255 259 258 233 224 203 182 187 204 209 208 208 210 209 213 215 211 208 206 205 202 204 211 214 216 221 223 223 224 226 229 232 232 233 235 235 235 233 232 232 230 230 232 236 237 236 232 228 226 221 217 215 214 214 216 218 218 216 215 214 215 219 219 217
180 196 194 196 203 256 249 226 225 242 242 254 252 244 250 185 186 203 200 191 198 200 204 223 218 197 190 199 210 212 244 259 255 258 271 271 244 206 176 167 181 198 204 204 204 204 205 211 213 213 214 217 218 213 212 217 218 215 218 221 222 223 225 229 230 232 234 235 234 234 233 231 232 235 238 241 242 240 237 232 228 223 218 214 214 213 214 217 216 212 211 214 216 219 221 220 220
192 194 195 194 192 189 223 222 208 218 244 259 264 270 280 127 175 200 198 208 225 232 248 235 194 162 170 178 174 186 233 245 245 256 267 277 259 203 168 159 186 208 213 215 211 202 206 212 208 210 212 217 226 227 225 228 228 226 226 225 224 224 225 227 228 230 232 233 233 234 236 236 238 241 243 243 242 239 236 233 228 223 219 216 216 213 213 216 214 211 212 219 224 225 222 220 219